This is the latest recevied weather packets stored in our database for station/object KD2ZLA. If no packets are shown the sender has not sent any weather packets the latest 1 day(s).
| Time | Temp. | Humidity | Pressure | Rain* | Wind** | Luminosity | Snow |
|---|---|---|---|---|---|---|---|
| 1778099476 | 7.78° C | 84% | 1008.6 hPa | 0 mm | - | 118 W/m² | - |
| 1778097960 | 7.78° C | 87% | 1008.3 hPa | 0 mm | - | 176 W/m² | - |
| 1778097657 | 7.78° C | 87% | 1008.2 hPa | 0 mm | - | 202 W/m² | - |
| 1778096748 | 7.22° C | 88% | 1008.6 hPa | 0 mm | - | 150 W/m² | - |
| 1778094928 | 7.22° C | 91% | 1008.5 hPa | 0 mm | - | 154 W/m² | - |
| 1778094624 | 7.22° C | 91% | 1008.7 hPa | 0 mm | - | 117 W/m² | - |
| 1778093412 | 7.22° C | 91% | 1008.6 hPa | 0 mm | - | 136 W/m² | - |
| 1778090988 | 6.67° C | 90% | 1008.6 hPa | 0 mm | - | 141 W/m² | - |
| 1778086141 | 6.67° C | 91% | 1008.8 hPa | 0.51 mm | - | 302 W/m² | - |
| 1778084925 | 6.67° C | 92% | 1009.3 hPa | 0.51 mm | - | 251 W/m² | - |
| 1778084018 | 6.67° C | 93% | 1009.3 hPa | 0 mm | - | 226 W/m² | - |
| 1778081679 | 6.67° C | 94% | 1009.3 hPa | 0.51 mm | - | 86 W/m² | - |
| 1778080772 | 6.67° C | 94% | 1009.2 hPa | 0.51 mm | - | 139 W/m² | - |
| 1778079862 | 6.11° C | 95% | 1009.2 hPa | 1.27 mm | - | 211 W/m² | - |
| 1778076836 | 6.11° C | 95% | 1009.1 hPa | 1.78 mm | - | 98 W/m² | - |
| 1778076534 | 6.11° C | 95% | 1009.5 hPa | 1.27 mm | - | 91 W/m² | - |
| 1778075928 | 5.56° C | 94% | 1009.3 hPa | 1.78 mm | - | 95 W/m² | - |
| 1778074411 | 5.56° C | 94% | 1009.4 hPa | 1.27 mm | - | 81 W/m² | - |
| 1778073503 | 5.56° C | 94% | 1009.3 hPa | 1.27 mm | - | 76 W/m² | - |
| 1778073199 | 5.56° C | 94% | 1009.4 hPa | 1.27 mm | - | 73 W/m² | - |
| 1778070476 | 6.11° C | 95% | 1009.4 hPa | 0.51 mm | - | 58 W/m² | - |
| 1778070173 | 5.56° C | 95% | 1009.5 hPa | 0.51 mm | - | 51 W/m² | - |
| 1778069568 | 5.56° C | 95% | 1009.3 hPa | 1.27 mm | - | 61 W/m² | - |
| 1778068056 | 6.11° C | 95% | 1009.8 hPa | 1.27 mm | - | 31 W/m² | - |
| 1778067149 | 5.56° C | 94% | 1009.9 hPa | 1.27 mm | - | 30 W/m² | - |
* Rain latest hour (hover to see other rain measurements)
** Current wind speed in m/s (hover to see current wind gust speed)